GW5240 Weather Reports


Display with metric or nautical units.
time (UTC)temp
F
wind
direction
speed
MPH
gust
MPH
rain 1hr
in
rain 24hr
in
rain mn
in
humidity
%
barometer
mb
20260904154556 84 130 1.0 2.0 0.00 0.00 0.00 77 1011.9
20260904154051 84 350 4.0 5.0 0.00 0.00 0.00 77 1011.9
20260904153550 85 38 5.0 7.0 0.00 0.00 0.00 75 1011.8
20260904153046 85 89 2.0 3.0 0.00 0.00 0.00 74 1011.6
20260904152542 85 155 2.0 3.0 0.00 0.00 0.00 75 1011.7
20260904152038 84 161 1.0 2.0 0.00 0.00 0.00 77 1011.4
20260904151538 83 164 0.0 0.0 0.00 0.00 0.00 78 1011.4
20260904151037 83 147 2.0 3.0 0.00 0.00 0.00 78 1011.5
20260904150532 83 83 1.0 2.0 0.00 0.00 0.00 78 1011.2
20260904150027 82 174 0.0 0.0 0.00 0.00 0.00 80 1011.5
20260904145526 82 349 2.0 3.0 0.00 0.00 0.00 80 1011.2
20260904145022 81 176 2.0 3.0 0.00 0.00 0.00 82 1011.2
20260904144518 80 151 0.0 0.0 0.00 0.00 0.00 84 1011.1
20260904144014 79 146 2.0 2.0 0.00 0.00 0.00 85 1011.2
20260904143509 79 338 2.0 3.0 0.00 0.00 0.00 86 1011.2
20260904143006 78 141 0.0 2.0 0.00 0.00 0.00 87 1011.3
20260904142502 78 152 0.0 0.0 0.00 0.00 0.00 87 1011.3
20260904142001 78 162 0.0 0.0 0.00 0.00 0.00 88 1011.3
20260904141456 78 122 1.0 2.0 0.00 0.00 0.00 88 1011.2
20260904140953 77 183 1.0 2.0 0.00 0.00 0.00 89 1011.1
20260904140452 77 122 1.0 2.0 0.00 0.00 0.00 89 1011.2
20260904135952 77 122 2.0 2.0 0.00 0.00 0.00 91 1011.2
20260904135452 76 140 2.0 2.0 0.00 0.00 0.00 91 1011.1
20260904134948 76 139 1.0 2.0 0.00 0.00 0.00 93 1011.3
20260904134448 76 172 0.0 0.0 0.00 0.00 0.00 94 1011.4
20260904133943 75 137 0.0 0.0 0.00 0.00 0.00 94 1011.3
20260904133437 75 152 0.0 0.0 0.00 0.00 0.00 95 1011.4
20260904132933 75 143 0.0 2.0 0.00 0.00 0.00 96 1011.3
20260904132428 74 155 0.0 2.0 0.00 0.00 0.00 97 1011.1
20260904131928 74 155 0.0 2.0 0.00 0.00 0.00 97 1011.3
20260904131423 74 140 2.0 2.0 0.00 0.00 0.00 97 1011.2
20260904130919 74 315 0.0 2.0 0.00 0.00 0.00 98 1011.1
20260904130418 73 250 0.0 2.0 0.00 0.00 0.00 98 1011.0
20260904125912 73 159 0.0 0.0 0.00 0.00 0.00 98 1011.0
20260904125410 73 161 0.0 0.0 0.00 0.00 0.00 98 1011.1
20260904124908 73 137 0.0 0.0 0.00 0.00 0.00 98 1010.9
20260904124405 73 161 0.0 0.0 0.00 0.00 0.00 98 1010.8
20260904123900 72 161 0.0 2.0 0.00 0.00 0.00 98 1010.6
20260904123355 72 161 0.0 0.0 0.00 0.00 0.00 98 1010.7
20260904122851 72 161 0.0 0.0 0.00 0.00 0.00 98 1010.6
20260904122350 72 160 0.0 0.0 0.00 0.00 0.00 98 1010.8
20260904121844 72 160 0.0 0.0 0.00 0.00 0.00 98 1010.6
20260904121341 71 160 0.0 0.0 0.00 0.00 0.00 97 1010.6
20260904120837 71 160 0.0 0.0 0.00 0.00 0.00 97 1010.5
20260904120333 71 160 0.0 0.0 0.00 0.00 0.00 97 1010.5
20260904115828 71 158 0.0 0.0 0.00 0.00 0.00 97 1010.6
20260904115323 71 168 0.0 0.0 0.00 0.00 0.00 97 1010.4
20260904114823 71 144 0.0 0.0 0.00 0.00 0.00 97 1010.4
20260904114318 71 167 0.0 0.0 0.00 0.00 0.00 97 1010.5
20260904113813 71 163 0.0 0.0 0.00 0.00 0.00 97 1010.1
20260904113312 71 167 0.0 0.0 0.00 0.00 0.00 97 1010.2
20260904112807 71 162 0.0 0.0 0.00 0.00 0.00 97 1010.1
20260904112305 72 157 0.0 0.0 0.00 0.00 0.00 97 1010.3
20260904111758 72 148 0.0 0.0 0.00 0.00 0.00 97 1010.1
20260904111254 72 171 0.0 0.0 0.00 0.00 0.00 97 1010.2
20260904110749 72 162 0.0 0.0 0.00 0.00 0.00 97 1010.3
20260904110248 72 144 2.0 2.0 0.00 0.00 0.00 97 1010.0
20260904105743 72 173 0.0 2.0 0.00 0.00 0.00 97 1010.1
20260904105238 72 154 0.0 0.0 0.00 0.00 0.00 97 1010.2
20260904104733 72 175 0.0 0.0 0.00 0.00 0.00 97 1009.9
20260904104229 72 175 0.0 0.0 0.00 0.00 0.00 97 1010.2
20260904103726 72 176 0.0 0.0 0.00 0.00 0.00 97 1010.2
20260904103220 72 169 0.0 2.0 0.00 0.00 0.00 97 1010.1
20260904102716 72 150 0.0 2.0 0.00 0.00 0.00 97 1010.1
20260904102211 72 174 0.0 0.0 0.00 0.00 0.00 97 1010.2
20260904101708 72 156 0.0 0.0 0.00 0.00 0.00 97 1010.4
20260904101203 72 161 0.0 0.0 0.00 0.00 0.00 97 1010.3
20260904100659 72 161 0.0 0.0 0.00 0.00 0.00 97 1010.0
20260904100155 72 161 0.0 0.0 0.00 0.00 0.00 97 1010.3
20260904095649 72 161 0.0 0.0 0.00 0.00 0.00 97 1010.1
20260904095148 71 161 0.0 0.0 0.00 0.00 0.00 97 1010.1
20260904094644 71 161 0.0 0.0 0.00 0.00 0.00 97 1010.0
20260904094138 71 161 0.0 0.0 0.00 0.00 0.00 96 1009.9
20260904093636 72 161 0.0 0.0 0.00 0.00 0.00 96 1010.0
20260904093135 72 161 0.0 0.0 0.00 0.00 0.00 96 1009.8
20260904092631 71 161 0.0 0.0 0.00 0.00 0.00 96 1009.9
20260904092127 72 161 0.0 0.0 0.00 0.00 0.00 96 1009.9
20260904091623 72 161 0.0 0.0 0.00 0.00 0.00 96 1009.7
20260904091123 72 161 0.0 0.0 0.00 0.00 0.00 96 1009.8
20260904090618 72 160 0.0 0.0 0.00 0.00 0.00 96 1009.6
20260904090115 72 161 0.0 0.0 0.00 0.00 0.00 96 1009.8
20260904085614 72 161 0.0 0.0 0.00 0.00 0.00 96 1009.6
20260904085114 72 161 0.0 0.0 0.00 0.00 0.00 96 1009.4
20260904084610 72 160 0.0 0.0 0.00 0.00 0.00 96 1009.5
20260904084106 72 161 0.0 0.0 0.00 0.00 0.00 96 1009.7
20260904083602 72 160 0.0 0.0 0.00 0.00 0.00 96 1009.4
20260904083057 72 161 0.0 0.0 0.00 0.00 0.00 96 1009.6
20260904082552 72 161 0.0 0.0 0.00 0.00 0.00 96 1009.5
20260904082048 73 161 0.0 0.0 0.00 0.00 0.00 95 1009.6
20260904081543 72 160 0.0 0.0 0.00 0.00 0.00 95 1009.6
20260904081038 72 161 0.0 0.0 0.00 0.00 0.00 95 1009.6
20260904080534 72 161 0.0 0.0 0.00 0.00 0.00 95 1009.6
20260904080030 73 161 0.0 0.0 0.00 0.00 0.00 95 1009.5
20260904075526 73 161 0.0 0.0 0.00 0.00 0.00 95 1009.7
20260904075020 73 161 0.0 0.0 0.00 0.00 0.00 95 1009.3
20260904074515 73 161 0.0 0.0 0.00 0.00 0.00 95 1009.4
20260904074014 73 161 0.0 0.0 0.00 0.00 0.00 95 1009.4
20260904073510 73 161 0.0 0.0 0.00 0.00 0.00 95 1009.5
20260904073006 73 161 0.0 0.0 0.00 0.00 0.00 94 1009.6
20260904072502 73 161 0.0 0.0 0.00 0.00 0.00 94 1009.6
20260904072001 73 161 0.0 0.0 0.00 0.00 0.00 94 1009.5
20260904071457 73 161 0.0 0.0 0.00 0.00 0.00 94 1009.4
20260904070952 73 161 0.0 0.0 0.00 0.00 0.00 94 1009.9
20260904070450 73 160 0.0 0.0 0.00 0.00 0.00 94 1009.7
20260904065945 73 160 0.0 0.0 0.00 0.00 0.00 93 1009.3
20260904065441 74 160 0.0 0.0 0.00 0.00 0.00 93 1009.8
20260904064936 74 161 0.0 0.0 0.00 0.00 0.00 93 1009.8
20260904064432 74 160 0.0 0.0 0.00 0.00 0.00 93 1009.8
20260904063927 74 160 0.0 0.0 0.00 0.00 0.00 93 1009.6
20260904063424 74 160 0.0 0.0 0.00 0.00 0.00 93 1009.7
20260904062918 74 160 0.0 0.0 0.00 0.00 0.00 93 1009.9
20260904062414 74 161 0.0 0.0 0.00 0.00 0.00 92 1009.8
20260904061910 74 161 0.0 0.0 0.00 0.00 0.00 92 1009.7
20260904061406 74 161 0.0 0.0 0.00 0.00 0.00 92 1009.6
20260904060902 74 160 0.0 0.0 0.00 0.00 0.00 92 1009.7
20260904060358 75 160 0.0 0.0 0.00 0.00 0.00 92 1009.6
20260904055853 74 160 0.0 0.0 0.00 0.00 0.00 92 1009.7
20260904055348 75 160 0.0 0.0 0.00 0.00 0.00 92 1009.6
20260904054844 75 160 0.0 0.0 0.00 0.00 0.00 91 1009.6
20260904054340 75 161 0.0 0.0 0.00 0.00 0.00 91 1009.7
20260904053835 75 161 0.0 0.0 0.00 0.00 0.00 91 1009.5
20260904053334 75 160 0.0 0.0 0.00 0.00 0.00 91 1009.5
20260904052830 75 160 0.0 0.0 0.00 0.00 0.00 90 1009.7
20260904052327 75 160 0.0 0.0 0.00 0.00 0.00 90 1009.4
20260904051823 75 160 0.0 0.0 0.00 0.00 0.00 90 1009.6
20260904051318 76 160 0.0 0.0 0.00 0.00 0.00 89 1009.7
20260904050813 76 160 0.0 0.0 0.00 0.00 0.00 89 1009.6
20260904050311 76 160 0.0 0.0 0.00 0.00 0.00 89 1009.5
20260904045810 76 159 0.0 0.0 0.00 0.01 0.01 88 1009.6
20260904045307 76 159 0.0 0.0 0.00 0.01 0.01 88 1009.6
20260904044759 76 165 0.0 0.0 0.00 0.01 0.01 88 1009.5
20260904044257 76 155 0.0 0.0 0.00 0.01 0.01 88 1009.5
20260904043752 76 154 0.0 0.0 0.00 0.01 0.01 88 1009.4
20260904043248 76 157 0.0 0.0 0.00 0.01 0.01 88 1009.4
20260904042743 76 157 0.0 0.0 0.00 0.01 0.01 87 1009.4
20260904042240 77 156 0.0 0.0 0.00 0.01 0.01 87 1009.2
20260904041739 77 161 0.0 0.0 0.00 0.01 0.01 86 1009.4
20260904041235 77 161 0.0 0.0 0.00 0.01 0.01 86 1009.2
20260904040731 77 165 0.0 0.0 0.00 0.01 0.01 86 1009.3
20260904040226 77 165 0.0 0.0 0.00 0.01 0.01 85 1009.2
20260904035722 77 167 0.0 2.0 0.00 0.01 0.01 85 1009.0
20260904035217 77 157 0.0 0.0 0.00 0.01 0.01 84 1009.4
20260904034716 78 160 0.0 0.0 0.00 0.01 0.01 84 1009.5
20260904034212 78 162 0.0 0.0 0.00 0.01 0.01 83 1009.4
20260904033708 78 162 0.0 0.0 0.00 0.01 0.01 83 1009.4
20260904033205 78 156 0.0 0.0 0.00 0.01 0.01 82 1009.5
20260904032701 78 161 0.0 0.0 0.00 0.01 0.01 82 1009.4
20260904032159 79 154 0.0 0.0 0.00 0.01 0.01 81 1009.4
20260904031700 79 167 0.0 0.0 0.00 0.01 0.01 81 1009.4
20260904031155 78 161 0.0 0.0 0.00 0.01 0.01 81 1009.5
20260904030651 79 162 0.0 0.0 0.00 0.01 0.01 81 1009.6
20260904030146 79 157 0.0 0.0 0.00 0.01 0.01 81 1009.5
20260904025642 79 137 0.0 2.0 0.00 0.01 0.01 81 1009.6
20260904025136 79 166 0.0 0.0 0.00 0.01 0.01 80 1009.6
20260904024632 79 149 0.0 0.0 0.00 0.01 0.01 80 1009.5
20260904024127 79 167 0.0 0.0 0.00 0.01 0.01 79 1009.5
20260904023623 79 165 0.0 0.0 0.00 0.01 0.01 79 1009.5
20260904023119 79 166 0.0 0.0 0.00 0.01 0.01 79 1009.5
20260904022614 79 173 1.0 2.0 0.00 0.01 0.01 79 1009.3
20260904022110 79 167 0.0 0.0 0.00 0.01 0.01 79 1009.4
20260904021605 80 167 0.0 0.0 0.00 0.01 0.01 78 1009.5
20260904021100 80 164 0.0 0.0 0.00 0.01 0.01 78 1009.4
20260904020555 80 164 0.0 0.0 0.00 0.01 0.01 78 1009.3
20260904020045 80 164 0.0 0.0 0.00 0.01 0.01 77 1009.5
20260904015540 80 155 0.0 0.0 0.00 0.01 0.01 76 1009.4
20260904015038 80 158 0.0 0.0 0.00 0.01 0.01 76 1009.2
20260904014532 80 166 0.0 2.0 0.00 0.01 0.01 76 1009.3
20260904014028 81 174 0.0 0.0 0.00 0.01 0.01 75 1009.3
20260904013524 81 169 0.0 0.0 0.00 0.01 0.01 75 1008.8
20260904013021 81 39 1.0 2.0 0.00 0.01 0.01 75 1009.2
20260904012520 81 167 0.0 0.0 0.00 0.01 0.01 74 1008.8
20260904012015 82 173 0.0 0.0 0.00 0.01 0.01 73 1008.8
20260904011509 82 170 0.0 0.0 0.00 0.01 0.01 73 1008.9
20260904011004 82 166 0.0 0.0 0.00 0.01 0.01 72 1008.7
20260904010501 83 164 0.0 0.0 0.00 0.01 0.01 71 1008.7
20260904010000 83 152 2.0 2.0 0.00 0.01 0.01 71 1008.6
20260904005456 83 173 0.0 0.0 0.00 0.01 0.01 71 1008.7
20260904004951 83 176 1.0 2.0 0.00 0.01 0.01 71 1008.6
20260904004447 83 163 0.0 0.0 0.00 0.01 0.01 70 1008.5
20260904003947 84 168 0.0 2.0 0.00 0.01 0.01 69 1008.7
20260904003443 84 168 0.0 2.0 0.00 0.01 0.01 69 1008.6
20260904002938 84 175 0.0 2.0 0.00 0.01 0.01 69 1008.6
20260904002435 84 113 0.0 2.0 0.00 0.01 0.01 68 1008.7
20260904001933 84 173 2.0 3.0 0.00 0.01 0.01 68 1008.9
20260904001429 84 166 0.0 0.0 0.00 0.01 0.01 68 1008.7
20260904000923 85 222 3.0 5.0 0.00 0.01 0.01 67 1008.9
20260904000425 85 171 2.0 3.0 0.00 0.01 0.01 66 1008.7
20260903235919 85 140 3.0 5.0 0.00 0.01 0.01 65 1008.8
20260903235415 85 322 2.0 3.0 0.00 0.01 0.01 65 1008.6
20260903234914 85 145 1.0 2.0 0.00 0.01 0.01 65 1008.8
20260903234410 86 173 1.0 2.0 0.00 0.01 0.01 64 1008.7
20260903233906 86 169 2.0 3.0 0.00 0.01 0.01 64 1008.7
20260903233402 86 97 0.0 2.0 0.00 0.01 0.01 64 1008.7
20260903232901 86 146 2.0 3.0 0.00 0.01 0.01 64 1008.7
20260903232356 86 169 1.0 2.0 0.00 0.01 0.01 63 1008.4
20260903231856 86 126 2.0 3.0 0.00 0.01 0.01 62 1008.4
20260903231351 86 179 1.0 2.0 0.00 0.01 0.01 62 1008.4
20260903230846 87 190 0.0 2.0 0.00 0.01 0.01 62 1008.1
20260903230341 87 192 6.0 9.0 0.00 0.01 0.01 61 1007.9
20260903225838 87 147 2.0 3.0 0.00 0.01 0.01 61 1008.0
20260903225333 87 176 0.0 2.0 0.00 0.01 0.01 60 1008.1
20260903224830 87 203 1.0 3.0 0.00 0.01 0.01 60 1008.1
20260903224325 88 84 5.0 9.0 0.00 0.01 0.01 59 1008.0
20260903223821 88 152 2.0 3.0 0.00 0.01 0.01 59 1008.0
20260903223314 88 168 2.0 2.0 0.00 0.01 0.01 59 1008.0
20260903222809 88 159 4.0 7.0 0.00 0.01 0.01 58 1008.1
20260903222308 89 198 2.0 3.0 0.00 0.01 0.01 58 1008.3
20260903221803 89 233 2.0 3.0 0.00 0.01 0.01 57 1008.2
20260903221301 88 192 4.0 5.0 0.00 0.01 0.01 58 1008.2
20260903220800 87 165 2.0 3.0 0.00 0.01 0.01 59 1008.2
20260903220254 89 79 4.0 5.0 0.00 0.01 0.01 58 1008.1
20260903215747 88 158 2.0 3.0 0.00 0.01 0.01 58 1008.4
20260903215244 88 197 4.0 5.0 0.00 0.01 0.01 58 1008.3
20260903214741 88 147 5.0 5.0 0.00 0.01 0.01 58 1008.2
20260903214239 88 174 3.0 3.0 0.00 0.01 0.01 59 1008.3
20260903213732 88 189 4.0 5.0 0.00 0.01 0.01 58 1008.2
20260903213228 88 181 4.0 5.0 0.00 0.01 0.01 58 1008.5
20260903212724 88 191 4.0 5.0 0.00 0.01 0.01 60 1008.6
20260903212220 87 182 2.0 2.0 0.00 0.01 0.01 60 1008.7
20260903211718 87 167 1.0 2.0 0.00 0.01 0.01 62 1008.6
20260903211215 85 164 2.0 3.0 0.07 0.01 0.01 65 1008.6
20260903210711 85 174 0.0 2.0 0.07 0.01 0.01 67 1008.4
20260903210207 84 159 3.0 7.0 0.00 0.00 0.00 65 1008.3
20260903205701 86 180 6.0 10.0 0.00 0.00 0.00 62 1008.2
20260903205200 86 170 3.0 7.0 0.00 0.00 0.00 59 1008.8
20260903204656 86 179 2.0 2.0 0.00 0.00 0.00 59 1009.2
20260903204152 87 180 4.0 7.0 0.00 0.00 0.00 58 1008.9
20260903203647 87 184 2.0 3.0 0.00 0.00 0.00 57 1008.9
20260903203142 88 179 2.0 2.0 0.00 0.00 0.00 56 1008.8
20260903202637 90 187 1.0 2.0 0.00 0.00 0.00 53 1009.0
20260903202133 90 69 4.0 7.0 0.00 0.00 0.00 53 1009.0
20260903201632 90 181 1.0 2.0 0.00 0.00 0.00 54 1008.8
20260903201131 90 165 2.0 3.0 0.00 0.00 0.00 54 1009.0
20260903200626 90 181 1.0 2.0 0.00 0.00 0.00 55 1009.0
20260903200121 90 195 2.0 2.0 0.00 0.00 0.00 55 1009.3
20260903195617 90 154 2.0 2.0 0.00 0.00 0.00 60 1008.9
20260903195113 89 82 7.0 12.0 0.00 0.00 0.00 61 1009.0
20260903194609 90 221 2.0 3.0 0.00 0.00 0.00 61 1009.2
20260903194108 90 207 3.0 3.0 0.00 0.00 0.00 62 1009.6
20260903193605 89 193 2.0 2.0 0.00 0.00 0.00 64 1009.5
20260903193100 87 69 3.0 3.0 0.00 0.00 0.00 65 1009.6
20260903192557 86 182 2.0 3.0 0.00 0.00 0.00 68 1009.6
20260903192057 85 109 1.0 2.0 0.00 0.00 0.00 71 1009.6
20260903191553 86 188 1.0 2.0 0.00 0.00 0.00 69 1009.3
20260903191048 86 188 1.0 2.0 0.00 0.00 0.00 69 1009.2
20260903190547 84 136 2.0 2.0 0.00 0.00 0.00 72 1009.5
20260903190047 84 83 3.0 3.0 0.00 0.00 0.00 73 1010.0
20260903185542 82 155 0.0 0.0 0.00 0.00 0.00 77 1010.1
20260903185038 80 120 2.0 3.0 0.00 0.00 0.00 79 1010.2
20260903184534 79 168 1.0 2.0 0.00 0.00 0.00 79 1010.2
20260903184029 80 149 0.0 0.0 0.00 0.00 0.00 79 1010.1
20260903183528 80 163 0.0 0.0 0.00 0.00 0.00 78 1010.3
20260903183023 80 151 0.0 2.0 0.00 0.00 0.00 77 1010.1
20260903182522 80 150 0.0 0.0 0.00 0.00 0.00 77 1010.2
20260903182019 80 148 0.0 0.0 0.00 0.00 0.00 76 1010.3
20260903181517 80 163 1.0 2.0 0.00 0.00 0.00 74 1010.3
20260903181017 80 168 0.0 0.0 0.00 0.00 0.00 74 1010.2
20260903180513 80 160 0.0 0.0 0.00 0.00 0.00 73 1010.1
20260903180012 80 206 0.0 2.0 0.00 0.00 0.00 73 1010.2
20260903175511 80 179 0.0 0.0 0.00 0.00 0.00 72 1010.4
20260903175010 80 166 0.0 2.0 0.00 0.00 0.00 73 1010.1
20260903174505 81 181 0.0 2.0 0.00 0.00 0.00 72 1010.2
20260903174000 81 166 0.0 0.0 0.00 0.00 0.00 70 1010.1
20260903173455 82 164 0.0 2.0 0.00 0.00 0.00 68 1010.2
20260903172951 83 81 2.0 3.0 0.00 0.00 0.00 67 1010.2
20260903172446 84 148 3.0 3.0 0.00 0.00 0.00 65 1010.5
20260903171941 85 177 2.0 2.0 0.00 0.00 0.00 65 1010.4
20260903171436 85 135 1.0 2.0 0.00 0.00 0.00 64 1010.5
20260903170936 84 214 3.0 5.0 0.00 0.00 0.00 67 1010.6
20260903170431 83 163 2.0 3.0 0.00 0.00 0.00 68 1010.8
20260903165930 82 156 0.0 2.0 0.00 0.00 0.00 69 1010.9
20260903165424 82 171 0.0 0.0 0.00 0.00 0.00 68 1010.9
20260903164918 83 180 2.0 2.0 0.00 0.00 0.00 66 1010.9
20260903164414 85 151 4.0 7.0 0.00 0.00 0.00 63 1010.8
20260903163913 86 175 0.0 0.0 0.00 0.00 0.00 63 1010.8
20260903163409 85 168 2.0 2.0 0.00 0.00 0.00 61 1010.8
20260903162905 85 158 4.0 7.0 0.00 0.00 0.00 62 1010.9
20260903162402 82 178 0.0 0.0 0.00 0.00 0.00 68 1010.8
20260903161857 80 148 2.0 3.0 0.00 0.00 0.00 68 1010.9
20260903161352 80 176 1.0 2.0 0.00 0.00 0.00 69 1010.7
20260903160848 81 104 1.0 2.0 0.00 0.00 0.00 68 1010.7
20260903160347 82 145 0.0 0.0 0.00 0.00 0.00 66 1010.8
20260903155845 83 164 1.0 2.0 0.00 0.00 0.00 64 1010.9
20260903155341 84 129 0.0 0.0 0.00 0.00 0.00 64 1010.7